This demonstration page uses our WeatherBlox Daily Observations layout. Learn more.

Left ArrowRight Arrow

39.92423, -83.80882

Hourly Observations for August 31, 2020

Temp ( °F °C ) Dew Point ( °F °C ) Humidity (%) Winds ( mph kmh ) Pressure ( in mb ) Visibility ( mi km ) Precip ( " mm )
12:56 am 00:56 Clear 57 13.9 57 13.9 100 100 E 5 7 29.91 1013 10 16 N/A
1:56 am 01:56 Clear 55 12.8 55 12.8 100 100 E 6 9 29.90 1013 10 16 N/A
2:56 am 02:56 Clear 55 12.8 55 12.8 100 100 E 5 7 29.89 1012 10 16 N/A
3:56 am 03:56 Clear 55 12.8 55 12.8 100 100 E 5 7 29.89 1012 10 16 N/A
4:56 am 04:56 Clear 54 12.2 54 12.2 100 100 ENE 7 11 29.90 1012 10 16 N/A
5:56 am 05:56 Clear 54 12.2 54 12.2 100 100 E 6 9 29.90 1013 10 16 N/A
6:56 am 06:56 Clear 55 12.8 55 12.8 100 100 E 6 9 29.90 1012 10 16 N/A
7:56 am 07:56 Sunny 56 13.3 56 13.3 100 100 E 5 7 29.90 1013 10 16 N/A
8:56 am 08:56 Partly Cloudy 64 17.8 60 15.6 87 87 ESE 9 15 29.90 1013 10 16 N/A
9:56 am 09:56 Partly Cloudy 67 19.4 62 16.7 84 84 S 8 13 29.91 1013 10 16 N/A
10:56 am 10:56 Mostly Cloudy 71 21.7 65 18.3 81 81 VRB 3 6 29.90 1012 10 16 N/A
11:06 am 11:06 Mostly Cloudy 72 22 64 18 78 78 SE 8 13 29.86 1011 10 16 N/A
11:56 am 11:56 Cloudy 71 21.7 66 18.9 84 84 VRB 3 6 29.89 1012 10 16 N/A
12:56 pm 12:56 Mostly Cloudy 74 23.3 67 19.4 79 79 VRB 3 6 29.88 1012 10 16 N/A
1:56 pm 13:56 Cloudy 75 23.9 67 19.4 76 76 VRB 3 6 29.87 1012 10 16 N/A
2:32 pm 14:32 Cloudy 75 24 68 20 78 78 VRB 5 7 29.84 1010 10 16 N/A
2:56 pm 14:56 Cloudy 76 24.4 68 20 77 77 N N/A 29.86 1011 10 16 N/A
3:04 pm 15:04 Cloudy 77 25 68 20 74 74 SW 5 7 29.82 1010 10 16 N/A
3:43 pm 15:43 Cloudy 79 26 70 21 74 74 VRB 3 6 29.81 1009 10 16 N/A
3:56 pm 15:56 Cloudy 77 25 70 21.1 79 79 SSE 6 9 29.85 1011 10 16 N/A
4:04 pm 16:04 Cloudy 79 26 70 21 74 74 VRB 6 9 29.81 1009 10 16 N/A
4:56 pm 16:56 Mostly Cloudy 78 25.6 70 21.1 76 76 SSE 6 9 29.83 1010 10 16 N/A
5:56 pm 17:56 Partly Cloudy 78 25.6 71 21.7 79 79 VRB 7 11 29.84 1011 10 16 N/A
6:56 pm 18:56 Sunny 76 24.4 69 20.6 79 79 SE 7 11 29.86 1011 10 16 N/A
7:56 pm 19:56 Mostly Sunny 73 22.8 70 21.1 90 90 S 6 9 29.88 1012 10 16 N/A
8:56 pm 20:56 Clear 70 21.1 70 21.1 100 100 S 5 7 29.88 1012 10 16 N/A
9:56 pm 21:56 Clear 68 20 68 20 100 100 SSE 6 9 29.89 1012 10 16 N/A
10:56 pm 22:56 Clear 68 20 68 20 100 100 S 3 6 29.89 1012 10 16 N/A
11:56 pm 23:56 Clear 66 18.9 66 18.9 100 100 SE 5 7 29.92 1013 10 16 N/A

Powered by AerisWeather